SCP
0 0 0 0 0 0 0 0 0 0 0 0 0 0 0 0 0 0 0 0 0 0 0 0 1 1 0 0 0 0 0 0 0 0 0 0 0 0 0 0 0 0 0 0 0 0 0 0 0
0 0 0 0 0 0 0 0 0 0 0 0 0 0 0 0 0 0 0 0 0 0 0 0 1 1 0 0 0 0 0 0 0 0 0 0 0 0 0 0 0 0 0 0 0 0 0 0 0
0 0 0 0 0 0 0 0 0 0 0 0 0 0 0 0 0 0 0 0 0 0 0 0 1 1 0 0 0 0 0 0 0 0 0 0 0 0 0 0 0 0 0 0 0 0 0 0 0
0 0 0 0 0 0 0 0 0 0 0 0 0 0 0 0 0 0 0 0 0 0 0 0 1 1 0 0 0 0 0 0 0 0 0 0 0 0 0 0 0 0 0 0 0 0 0 0 0
0 0 0 0 0 0 0 0 0 0 0 0 0 0 0 0 0 0 0 0 0 0 0 0 0 0 0 0 0 0 0 0 0 0 0 0 0 0 0 0 0 0 0 0 0 0 0 0 0
0 0 0 0 0 0 0 0 0 0 0 0 0 0 0 0 0 0 0 0 0 0 0 0 0 0 0 0 0 0 0 0 0 0 0 0 0 0 0 0 0 0 0 0 0 0 0 0 0
0 0 0 0 0 0 0 0 0 0 0 0 0 0 0 0 0 0 0 0 0 0 0 0 0 0 0 0 0 0 0 0 0 0 0 0 0 0 0 0 0 0 0 0 0 0 0 0 0
0 0 0 0 0 0 0 0 0 0 0 0 0 0 0 0 0 0 0 0 0 0 0 0 0 0 0 0 0 0 0 0 0 0 0 0 0 0 0 0 0 0 0 0 0 0 0 0 0
0 0 0 0 0 0 0 0 0 0 0 0 0 0 0 0 0 0 0 0 0 0 0 0 0 0 0 0 0 0 0 0 0 0 0 0 0 0 0 0 0 0 0 0 0 0 0 0 0
0 0 0 0 0 0 0 0 -0 -0 0 0 0 0 0 0 0 0 0 0 0 0 0 0 0 0 0 0 0 0 0 0 0 0 0 0 0 0 0 0 0 0 0 0 0 0 0 0 0
0 0 0 0 0 0 0 0 -0 -0 0 0 0 0 0 0 0 0 0 0 0 0 0 0 0 0 0 0 0 0 0 0 0 0 0 0 0 0 0 0 0 0 0 0 0 0 0 0 0
0 0 0 0 0 0 0 -0 -0 -0 0 0 0 0 0 0 0 0 0 0 0 0 0 0 0 0 0 0 0 0 0 0 0 0 0 0 0 0 0 0 0 0 0 0 0 0 0 0 0
0 0 0 0 0 0 0 0 -0 -0 -0 0 0 0 0 0 0 0 0 0 0 0 0 0 0 0 0 0 0 0 0 0 0 0 0 0 0 0 0 0 0 0 0 0 0 0 0 0 0
0 0 0 0 0 0 0 0 0 -0 -0 -0 0 0 0 0 0 0 0 0 0 0 0 0 0 0 0 0 0 0 0 0 0 0 0 0 0 0 0 0 0 0 0 0 0 0 0 0 0
0 0 0 0 0 0 0 0 0 -0 -0 -0 0 0 0 0 0 0 0 0 0 0 0 0 0 0 0 0 0 0 0 0 0 0 0 0 0 0 0 0 0 0 0 0 0 0 0 0 0
0 0 0 0 0 0 0 0 0 -0 -0 -0 -0 0 0 0 0 0 0 0 0 0 0 0 0 0 0 0 0 0 0 0 0 0 0 0 0 0 0 0 0 0 0 0 0 0 0 0 0
0 0 0 0 0 0 0 0 0 -0 -0 -0 -0 -0 0 0 0 0 0 0 0 0 0 0 0 0 0 0 0 0 0 0 0 0 0 0 0 0 0 0 0 0 0 0 0 0 0 0 0
0 0 0 0 0 0 0 0 0 0 -0 -0 -0 -0 -0 0 0 0 0 0 0 0 0 0 0 0 0 0 0 0 0 0 0 0 0 0 0 0 0 0 0 0 0 0 0 0 0 0 0
0 0 0 0 0 0 0 0 0 0 -0 -0 -0 -0 -0 -0 0 0 0 0 0 0 0 0 0 0 0 0 0 0 0 0 0 0 0 0 0 0 0 0 0 0 0 0 0 0 0 0 0
0 0 0 0 0 0 0 0 0 0 0 0 -0 -0 -0 -0 0 0 0 0 0 0 0 0 0 0 0 0 0 0 0 0 0 0 0 0 0 0 0 0 0 0 0 0 0 0 0 0 0
0 0 0 0 0 0 0 0 0 0 0 0 0 0 0 0 0 0 0 0 0 0 0 0 0 0 0 0 0 0 0 0 0 0 0 0 0 0 0 0 0 0 0 0 0 0 0 0 0
0 0 0 0 0 0 0 0 0 0 0 0 0 0 0 0 0 0 0 0 0 0 0 0 0 0 0 0 0 0 0 0 0 0 0 0 0 0 0 0 0 0 0 0 0 0 0 0 0
0 0 0 0 0 0 0 0 0 0 0 0 0 0 0 0 0 0 0 0 0 0 0 0 0 0 0 0 0 0 0 0 0 0 0 0 0 0 0 0 0 0 0 0 0 0 0 0 0
0 0 0 0 0 0 0 0 0 0 0 0 0 0 0 0 0 0 0 0 0 0 0 0 0 0 0 0 0 0 0 0 0 0 0 0 0 0 0 0 0 0 0 0 0 0 0 0 0
0 0 0 0 0 0 0 0 0 0 0 0 0 0 0 0 0 0 0 0 0 0 0 0 0 0 0 0 0 0 0 0 0 0 0 0 0 0 0 0 0 0 0 0 0 0 0 0 0
0 0 0 0 0 0 0 0 0 0 0 0 0 0 0 0 0 0 0 0 0 0 0 0 0 0 0 0 0 0 0 0 0 0 0 0 0 0 0 0 0 0 0 0 0 0 0 0 0
0 0 0 0 0 0 0 0 0 0 0 0 0 0 0 0 0 0 0 0 0 0 0 0 0 0 0 0 0 0 0 0 0 0 0 0 0 0 0 0 0 0 0 0 0 0 0 0 0
0 0 0 0 0 0 0 0 0 0 0 0 0 0 0 0 0 0 0 0 0 0 0 0 0 0 0 0 0 0 0 0 0 0 0 0 0 0 0 0 0 0 0 0 0 0 0 0 0
0 0 0 0 0 0 0 0 0 0 0 0 0 0 0 0 0 0 0 0 0 0 0 0 0 0 0 0 0 0 0 0 0 0 0 0 0 0 0 0 0 0 0 0 0 0 0 0 0
0 0 0 0 0 0 0 0 0 0 -0 0 0 0 0 0 0 0 0 0 0 0 0 0 0 0 0 0 0 0 0 0 0 0 0 0 0 0 0 0 0 0 0 0 0 0 0 0 0
Wind_Speed
8 10 8 3 4 7 13 12 12 10 8 4 2 2 3 3 1 5 6 10 16 19 19 20 21 20 20 19 19 19 18 17 16 16 16 16 15 16 16 15 15 15 16 16 17 17 17 17 16
9 10 7 4 7 10 11 14 16 12 5 2 3 2 3 1 7 9 8 12 18 19 18 18 21 21 20 20 20 19 18 17 17 16 16 16 16 16 16 15 16 16 16 16 16 16 16 16 15
12 12 5 5 9 13 10 10 12 10 3 4 1 2 4 1 7 7 10 16 17 17 16 18 21 21 21 21 20 19 18 18 17 16 16 16 16 16 16 15 16 16 16 16 15 15 15 15 14
7 6 5 10 17 16 15 13 4 3 2 4 5 4 2 3 4 9 14 16 17 17 16 18 21 21 21 21 20 19 19 18 17 16 16 16 16 16 16 15 15 15 15 15 15 15 14 14 13
7 5 10 14 19 17 15 13 6 3 4 6 6 5 3 3 10 14 13 15 16 16 16 18 20 21 21 21 20 19 18 18 17 17 16 17 16 16 15 15 14 15 14 14 14 14 14 13 12
6 6 11 16 19 18 17 15 9 6 6 7 8 7 3 5 9 11 12 12 14 16 17 17 20 20 20 20 20 19 18 18 17 17 17 17 16 15 15 14 14 14 14 13 13 13 13 12 11
9 9 16 18 16 16 16 14 12 8 7 7 6 7 5 7 9 11 11 12 14 16 16 14 14 15 18 19 19 18 17 17 17 17 17 16 16 15 15 14 13 13 13 13 12 12 12 11 10
10 7 16 19 19 16 12 10 10 8 7 7 6 6 6 10 11 11 10 11 13 14 15 14 13 12 12 12 16 16 16 16 16 16 15 15 14 14 14 13 13 13 13 12 12 12 11 10 8
12 13 19 20 16 12 11 12 7 3 4 7 5 1 8 15 14 12 10 10 12 14 14 14 14 13 12 11 14 14 14 15 15 13 15 12 7 8 8 10 12 13 12 11 11 11 10 9 6
11 17 26 18 14 11 11 10 6 5 7 8 3 5 13 13 13 14 14 14 15 15 15 14 14 13 12 11 11 8 9 10 9 8 9 6 6 6 8 11 11 12 11 11 10 10 9 6 3
14 21 19 19 17 15 12 10 6 6 8 10 9 11 13 13 12 13 14 14 14 14 14 14 13 13 12 9 9 6 6 7 8 10 9 6 6 6 6 4 5 6 7 5 6 5 3 3 3
21 22 21 19 16 14 13 11 10 9 9 6 7 13 15 15 15 14 15 14 14 14 14 14 14 13 12 10 8 7 6 6 6 8 9 6 5 6 6 4 4 4 3 4 4 3 3 3 3
26 25 22 18 17 16 14 14 12 12 8 7 5 9 14 16 15 13 12 13 13 14 14 14 14 14 12 10 8 8 7 7 7 7 7 7 6 6 6 5 5 4 4 4 3 3 4 3 3
19 20 22 20 18 16 16 15 14 14 9 9 8 8 11 13 14 13 13 14 15 15 15 14 14 14 12 10 8 7 7 6 7 7 7 8 6 6 6 5 5 4 4 4 3 3 3 3 3
19 20 20 21 20 17 14 19 21 15 11 12 11 10 11 12 13 14 15 15 16 16 16 15 14 15 14 12 10 7 7 7 6 7 8 8 7 7 6 5 5 4 4 5 3 3 3 3 3
14 18 20 20 20 19 16 21 18 15 16 16 13 12 11 13 13 13 14 13 14 15 16 16 13 15 14 11 10 7 7 7 6 6 6 8 8 8 6 5 5 5 4 4 3 3 3 3 2
13 17 21 20 20 20 21 20 13 14 17 18 15 13 12 13 14 13 14 14 15 17 17 17 15 15 14 12 9 8 7 7 6 6 6 7 8 9 7 5 5 6 4 4 4 3 3 3 3
14 17 19 20 17 21 23 22 14 12 15 16 16 15 14 14 15 14 14 14 15 16 17 17 15 14 13 10 8 7 7 7 6 6 7 9 8 9 7 6 7 6 5 4 4 4 3 3 3
18 18 19 18 16 18 21 21 18 16 14 14 14 15 15 14 14 14 14 15 14 15 17 18 17 15 13 11 11 10 10 8 7 7 9 9 9 10 8 6 7 6 6 6 6 4 5 3 3
22 22 20 15 15 16 16 19 17 17 17 14 13 13 14 14 14 15 14 15 15 17 18 19 19 17 16 13 11 9 8 7 6 6 8 10 10 10 9 8 7 7 6 7 7 5 4 4 4
21 21 19 16 12 13 12 16 17 14 17 16 15 13 12 14 14 15 16 15 15 17 18 18 20 18 17 14 10 9 7 6 7 9 9 10 11 11 9 10 8 8 7 7 7 7 7 5 4
18 18 18 17 14 8 10 9 14 15 16 18 17 15 14 13 13 13 15 15 16 16 16 18 19 19 18 16 14 16 14 12 12 10 8 9 11 11 11 10 10 9 7 7 7 7 6 7 5
15 12 15 15 14 12 11 9 8 14 18 18 17 16 15 13 13 13 14 15 15 15 15 16 18 19 18 18 17 16 12 10 7 8 10 11 10 11 12 11 10 10 8 9 9 7 7 6 5
13 11 11 12 10 16 17 13 8 12 17 17 17 16 15 14 12 12 12 13 13 14 14 15 17 17 19 19 18 18 16 13 12 12 13 11 9 10 13 12 11 10 9 9 8 9 9 7 7
11 8 7 9 10 10 12 14 10 9 12 13 14 14 13 13 11 10 10 12 14 15 15 16 17 17 18 19 19 19 17 16 15 14 13 12 10 10 14 13 12 10 9 9 9 9 9 9 8
11 11 8 6 6 6 11 13 9 11 10 9 9 11 12 12 11 11 11 12 13 15 17 17 17 16 18 19 19 18 17 13 11 12 11 13 11 11 12 14 12 11 11 10 9 8 8 8 8
8 11 8 6 6 5 8 9 8 8 9 9 8 7 9 11 11 10 11 11 12 14 16 17 17 16 17 18 18 17 17 14 13 12 11 10 9 10 13 14 13 12 12 11 10 8 9 8 8
7 4 5 7 6 7 7 10 6 10 10 10 8 6 5 6 7 8 8 10 11 12 13 14 16 16 15 17 17 15 16 15 13 11 12 12 12 11 13 14 14 13 12 12 10 8 9 9 8
6 7 5 4 5 4 4 4 6 6 8 8 7 7 6 5 5 6 5 6 8 9 10 12 13 13 14 15 15 15 14 14 13 12 12 12 11 12 13 14 14 14 13 12 11 10 10 11 9
3 5 6 5 5 5 4 5 2 1 2 5 6 5 5 4 4 4 4 5 5 7 8 10 11 12 12 14 14 15 14 14 14 13 13 12 12 12 13 13 13 13 13 12 12 12 11 12 11
Wind_Direction
236 238 231 230 234 233 239 240 253 249 247 247 263 282 298 282 326 126 161 154 130 140 147 153 151 151 148 144 139 135 132 128 125 123 120 117 115 112 108 105 103 101 99 96 93 90 89 88 87
240 229 229 228 231 234 237 233 246 252 242 32 3 323 289 21 83 114 147 136 136 140 146 152 151 150 148 145 141 138 135 131 127 125 123 120 117 113 109 108 106 103 100 97 95 93 92 91 89
250 237 222 224 230 233 242 233 224 232 194 125 149 269 260 79 119 132 136 134 137 140 147 149 151 149 148 146 143 141 138 134 131 128 126 124 120 116 112 109 107 104 101 99 99 97 96 93 90
233 224 236 237 239 236 246 263 278 214 168 161 188 206 166 15 78 119 129 138 139 141 145 148 153 150 148 146 144 142 139 137 134 132 130 127 122 118 114 111 109 107 106 103 102 100 97 95 91
235 224 227 237 243 247 252 257 254 225 208 193 207 225 126 80 96 118 134 143 141 143 142 150 153 151 149 148 146 143 141 140 138 134 132 128 123 119 117 115 114 113 111 109 106 103 100 96 92
219 220 227 234 241 242 246 256 252 220 229 205 197 221 154 132 121 133 143 144 142 140 141 151 154 152 151 150 148 146 145 144 141 137 134 129 126 124 123 121 119 118 115 113 110 107 102 98 94
222 228 237 242 245 242 237 235 238 220 229 227 199 212 152 156 138 142 144 143 139 138 143 150 153 151 151 150 149 149 147 146 143 140 135 131 130 129 128 125 123 121 118 116 114 111 106 101 96
227 244 243 241 245 248 255 245 229 217 228 239 215 213 170 149 139 143 144 142 139 141 146 153 154 153 151 149 149 148 146 145 143 138 132 130 132 132 131 128 127 125 121 119 117 113 109 105 103
233 236 238 234 239 248 255 259 245 217 242 256 248 261 119 133 140 144 145 144 145 148 151 158 159 157 154 151 149 145 145 143 138 133 132 131 130 129 132 128 131 130 127 126 123 121 119 117 118
218 230 234 237 248 255 257 254 242 210 219 241 227 110 119 137 151 156 161 162 160 159 159 162 162 159 156 154 148 149 147 145 145 141 143 147 145 141 131 131 135 134 132 131 133 137 138 143 152
219 232 240 242 249 261 265 265 250 229 224 221 201 157 145 155 165 169 172 172 166 163 163 164 162 159 156 150 154 155 152 156 157 152 162 159 141 127 123 129 127 128 136 136 141 152 186 172 150
236 237 238 244 250 255 260 264 258 238 238 242 217 166 159 169 177 181 179 174 167 167 168 165 161 158 156 154 158 157 154 163 159 158 166 154 139 138 141 143 150 155 159 148 164 191 179 149 150
237 242 243 242 247 252 255 252 255 252 247 256 251 169 171 177 183 187 183 174 168 170 170 169 162 160 158 157 161 160 159 162 157 158 166 152 146 149 147 156 157 167 153 154 182 182 156 147 139
246 246 246 245 243 244 248 250 246 246 245 247 239 196 186 188 188 185 184 178 175 174 172 170 166 162 161 161 164 162 161 159 155 156 164 155 152 152 152 155 158 162 151 162 177 166 148 141 125
252 256 250 241 241 240 244 246 238 236 237 240 233 213 200 200 195 192 187 182 177 175 172 171 169 166 165 164 167 161 162 161 155 158 165 159 154 152 153 151 156 156 154 159 169 156 139 128 124
242 245 245 236 231 231 231 242 232 223 228 233 231 221 207 206 204 197 190 182 176 173 172 172 172 170 168 167 165 160 164 162 158 159 164 163 158 154 154 150 157 156 153 154 156 143 134 131 141
230 231 234 237 227 224 224 241 234 222 220 223 226 225 213 205 207 203 191 183 177 174 173 171 171 171 169 166 164 162 165 163 160 161 164 167 163 158 156 155 159 156 153 155 160 149 148 148 152
219 227 232 233 224 223 226 234 232 230 224 221 219 220 219 209 205 201 193 185 178 174 172 170 169 170 165 163 163 161 165 166 165 166 169 168 166 164 160 158 164 158 154 160 162 160 156 148 150
246 244 240 241 234 228 230 233 231 230 233 227 219 215 217 215 203 197 192 184 177 172 171 171 171 172 168 171 174 175 177 173 172 172 174 172 170 169 166 165 168 164 163 169 169 161 159 158 140
243 249 251 253 243 234 236 238 233 228 230 228 225 218 212 210 205 196 192 184 180 176 174 173 174 176 176 178 178 175 168 170 170 171 178 179 177 175 175 169 171 168 167 173 177 163 157 165 154
240 241 245 251 265 259 250 244 234 229 227 226 225 223 218 210 206 195 191 187 181 180 177 176 176 178 179 174 168 164 163 167 178 185 187 185 182 180 179 176 172 174 172 178 181 170 164 169 179
244 241 247 251 252 249 230 246 229 226 226 223 219 216 219 217 210 201 190 186 183 181 177 176 176 178 178 173 176 177 181 186 190 184 183 183 185 184 183 181 180 178 178 179 183 176 169 165 178
243 248 245 248 251 254 236 246 238 217 223 219 215 211 212 215 211 204 191 185 182 178 175 176 175 178 177 178 181 183 187 189 176 175 180 186 190 190 188 186 186 185 184 183 183 179 177 175 174
243 244 252 249 242 241 228 228 243 217 219 216 212 210 209 210 212 205 191 181 181 176 174 174 175 179 179 181 184 188 189 183 178 181 186 188 189 192 192 190 191 190 187 186 183 182 182 183 181
225 215 215 214 218 232 212 220 236 225 223 215 207 204 202 200 203 202 190 183 180 176 175 176 178 181 181 183 187 191 193 189 188 186 186 185 186 192 196 193 194 194 190 185 180 182 186 185 186
217 211 218 216 210 223 207 220 226 226 236 227 208 198 193 194 199 200 193 184 179 176 177 179 183 184 184 186 191 193 193 193 194 189 187 188 191 192 190 192 195 195 192 189 185 184 186 187 190
220 215 231 270 279 254 214 214 219 211 229 234 227 203 193 191 193 194 190 183 178 177 180 182 185 186 188 188 190 193 194 194 195 191 186 188 188 185 186 191 194 196 195 192 187 190 190 188 192
221 207 207 221 228 239 232 218 211 197 211 218 217 208 199 191 189 185 184 183 180 179 179 180 185 189 187 188 191 194 195 196 193 188 190 188 187 182 183 189 193 195 196 194 191 187 188 189 192
202 207 215 225 239 245 238 231 206 200 198 199 202 196 193 196 192 181 177 175 171 169 174 180 183 187 188 189 189 190 193 194 192 192 192 189 184 181 183 186 190 193 196 194 193 192 188 192 193
211 212 210 216 229 233 264 271 318 291 192 189 194 189 183 182 179 166 164 157 154 166 173 178 183 186 188 187 186 189 189 190 193 195 193 188 185 184 183 183 187 192 194 193 194 193 192 194 195